Dewpoint
28 29 29 21 20 20 24 25 25 18 19 24 33 38 40 35 36 35 34 33 34 35 36 37 38 40 41 41 44 45 43 43 44 45 47 48 50 50 54 55 55 55 55 55
26 27 25 21 19 15 18 23 22 23 25 31 38 42 39 36 37 35 33 32 32 32 33 34 35 36 36 37 38 38 37 38 39 41 41 42 43 45 46 47 48 47 45 43
21 24 19 16 16 17 19 21 28 28 30 36 38 41 39 38 35 35 32 31 30 31 32 32 32 32 32 33 33 34 35 35 36 38 37 39 40 41 43 44 42 40 40 39
20 18 9 19 19 22 24 25 31 30 37 40 39 38 39 37 36 34 34 33 31 31 31 30 29 30 29 28 29 30 31 32 33 35 36 38 39 40 41 39 37 35 35 35
19 16 12 10 26 25 26 25 34 34 36 39 37 34 33 34 33 32 32 32 32 31 31 30 28 28 27 27 27 27 28 29 30 33 33 35 36 37 37 36 34 33 32 32
23 14 7 25 28 29 28 21 34 35 37 38 39 37 31 33 31 31 31 31 29 28 28 28 29 27 26 26 26 26 28 27 29 30 31 33 33 34 33 32 31 31 30 32
21 18 17 28 30 32 18 28 36 35 35 37 38 32 29 29 29 31 31 30 30 28 27 26 27 27 26 25 24 26 26 27 28 29 30 31 31 31 31 31 31 31 30 30
22 20 16 33 32 28 35 37 35 33 32 29 28 28 28 28 28 29 30 28 25 25 25 25 25 25 24 25 25 25 25 25 26 27 27 28 29 29 30 29 29 29 29 28
26 28 34 34 34 34 36 36 36 33 31 29 27 27 27 27 27 28 29 23 23 23 24 24 23 23 23 24 24 25 24 24 25 25 25 25 26 27 27 28 28 28 28 28
34 32 33 34 32 32 33 32 31 31 29 29 27 27 26 26 26 26 27 22 22 22 22 22 23 23 23 23 23 23 23 23 23 23 23 23 24 25 26 27 27 26 27 27
32 32 32 32 32 31 31 31 30 32 31 30 29 28 26 25 24 24 25 24 21 21 21 22 22 23 23 23 23 22 23 23 23 23 23 22 24 24 23 26 26 26 26 25
29 32 30 29 31 31 30 30 32 29 28 28 27 25 24 23 23 22 22 21 21 22 22 22 22 22 23 24 23 23 23 24 24 24 23 22 21 20 22 23 23 23 23 25
30 32 31 30 30 29 28 27 28 27 25 23 22 21 21 21 22 23 21 21 21 21 22 22 22 22 24 24 25 26 26 25 24 24 24 23 24 23 21 20 19 19 20 21
34 33 29 29 26 26 23 22 22 20 20 20 19 19 19 19 19 19 19 19 19 19 20 21 20 20 22 24 24 24 25 23 26 25 25 25 25 24 23 23 22 21 16 16
30 31 28 26 23 21 20 19 19 18 18 18 18 18 17 17 17 17 17 17 18 18 18 18 18 19 21 22 22 24 25 25 24 24 23 22 22 21 20 19 19 18 18 16
28 25 23 22 20 19 18 18 17 17 16 16 16 16 15 15 16 16 16 15 15 15 16 16 16 17 19 22 23 23 21 19 21 22 22 21 19 17 16 15 15 14 13 13
25 23 22 21 20 19 18 18 17 17 16 16 16 16 14 14 14 14 14 14 14 14 16 16 16 16 18 19 21 21 21 20 18 20 18 18 17 15 14 13 12 11 10 9
23 23 23 22 20 18 18 17 17 16 16 16 16 15 14 14 13 12 12 13 12 12 14 15 15 16 16 17 18 18 18 17 16 16 15 15 12 12 12 11 9 9 9 8
20 20 20 19 19 18 17 17 16 16 15 14 13 12 11 11 11 10 11 11 11 12 12 13 13 14 14 14 13 15 16 16 14 12 12 11 14 11 12 12 11 11 9 8
18 18 18 18 18 17 16 16 15 14 13 12 10 8 8 8 8 9 10 10 10 11 12 11 11 10 10 9 11 11 15 16 12 13 14 12 14 14 11 7 9 11 12 11
17 16 15 14 14 14 14 14 13 12 10 10 9 8 7 7 7 9 10 9 10 9 8 8 8 7 5 5 6 15 14 14 14 13 14 13 13 11 12 12 12 12 12 11
16 15 15 14 14 14 15 15 13 11 9 7 6 6 6 7 7 8 9 9 8 6 7 7 6 5 6 7 8 12 10 10 11 12 12 12 12 12 12 10 9 10 10 9
16 16 16 15 15 14 13 12 11 10 9 8 8 9 10 9 9 10 8 7 7 7 6 9 5 4 5 10 11 10 10 9 10 9 10 10 11 10 9 8 7 8 8 7
17 17 16 16 15 13 12 13 11 12 11 10 9 9 8 11 11 7 7 7 6 7 9 9 7 2 5 11 10 9 9 10 10 10 9 1 10 8 7 6 5 7 5 3
17 16 16 15 13 13 13 12 11 10 10 9 9 9 7 8 14 11 12 10 7 7 10 3 1 2 11 11 10 9 9 9 9 8 8 8 7 6 6 6 4 4 4 3
16 16 16 17 16 15 14 12 13 13 12 14 14 16 15 13 11 11 11 8 7 7 10 12 11 10 10 9 9 8 8 7 7 7 6 6 6 5 5 4 4 3 4 4
17 16 14 13 13 13 14 13 15 15 16 16 14 15 14 14 14 11 9 12 12 12 11 12 11 9 9 9 8 8 7 7 5 5 6 6 6 6 5 4 4 4 4 3
Lifted_Index
1 1 1 1 1 2 2 2 2 2 2 2 2 2 2 3 2 2 1 1 0 0 0 0 0 -0 0 0 -0 -0 -0 -0 -0 0 1 1 1 1 2 2 2 2 2 2
1 1 1 1 2 2 2 2 2 2 2 1 1 1 2 3 3 3 3 2 2 1 1 1 1 0 0 0 0 0 0 0 1 1 1 1 1 1 2 2 2 2 2 2
1 1 1 1 2 2 2 1 1 1 1 1 1 1 2 2 3 3 4 5 5 5 4 4 3 3 3 2 2 2 2 2 2 2 2 2 2 2 2 2 2 2 2 2
0 1 1 1 1 1 1 1 1 1 1 1 1 1 2 3 3 4 5 7 8 8 7 7 7 7 6 6 6 5 5 5 6 6 5 4 4 3 3 3 3 3 3 3
0 1 1 1 1 1 1 1 1 2 2 2 2 2 2 3 4 5 6 7 8 8 9 9 9 9 9 9 9 9 8 9 9 9 8 8 7 6 5 5 5 5 5 5
0 0 0 0 1 1 2 2 2 3 3 3 2 2 2 3 5 6 6 7 7 7 8 9 9 10 10 10 10 10 10 11 11 11 10 10 10 9 9 8 8 8 8 8
0 0 1 1 1 1 2 3 3 4 4 3 2 2 3 4 6 6 7 7 7 7 8 8 9 10 10 10 10 11 12 12 12 12 12 11 11 11 11 11 10 10 10 10
-0 0 1 1 2 2 3 3 3 4 4 4 3 3 4 6 7 7 7 7 8 8 8 9 9 10 10 10 11 12 13 13 13 13 13 13 13 12 12 12 11 11 11 11
0 1 1 2 2 2 3 3 4 4 4 4 4 4 6 7 7 7 7 7 8 8 8 9 10 11 11 11 12 13 13 13 13 13 14 14 13 13 12 12 11 11 11 11
1 1 2 2 3 3 3 3 4 4 5 5 5 5 6 7 7 7 7 7 8 9 9 10 11 12 12 13 14 13 13 13 13 13 14 14 14 13 13 12 12 12 12 12
2 2 2 3 3 3 3 4 4 5 5 6 6 6 6 7 7 7 7 8 8 9 10 11 12 13 13 14 14 14 13 13 13 13 14 14 14 14 14 15 15 14 14 14
2 2 3 3 3 4 4 4 5 5 6 6 6 6 7 7 7 7 8 9 9 10 11 12 13 13 14 15 15 14 13 13 14 14 14 15 15 15 16 17 17 17 17 17
3 3 3 3 4 4 5 5 5 5 6 6 6 7 7 7 8 8 9 10 11 11 12 13 14 14 15 15 15 15 14 14 14 15 15 15 15 15 16 17 18 18 18 18
4 4 4 4 5 5 5 6 6 6 6 6 7 7 8 8 9 9 10 11 12 13 13 14 14 15 16 16 16 16 15 15 16 16 16 16 16 16 17 17 18 18 19 19
5 5 5 5 5 5 6 6 6 6 7 7 8 8 9 9 10 11 12 13 13 13 14 14 15 15 16 17 17 17 17 17 18 18 18 18 18 18 19 19 19 19 20 21
5 5 5 5 5 6 6 6 7 7 8 8 9 10 11 11 12 12 13 14 14 14 15 15 16 17 18 19 19 19 19 20 20 20 20 20 20 20 20 20 20 20 21 21
5 5 5 5 6 6 7 8 8 9 9 10 11 12 12 13 13 13 14 15 15 15 16 17 18 19 21 21 21 21 21 21 21 21 20 20 20 20 20 21 21 21 21 22
7 7 7 7 7 8 8 9 10 11 12 12 13 13 14 14 14 14 15 16 16 16 18 19 20 21 21 22 22 21 21 21 21 21 21 21 21 21 21 21 21 21 22 22
9 9 9 9 10 10 10 11 12 13 14 14 15 15 15 15 15 15 16 16 17 18 19 21 21 21 21 22 22 21 21 21 21 21 21 21 21 21 21 21 21 21 21 22
10 10 10 11 11 12 12 13 13 14 15 15 15 15 15 16 16 17 17 17 18 19 21 21 22 21 21 22 22 21 21 21 20 20 20 21 20 21 21 21 21 21 21 22
10 11 11 12 12 13 13 14 14 15 15 15 15 16 16 17 18 18 18 18 19 21 22 22 22 22 22 22 22 21 21 21 20 20 20 20 20 20 21 21 21 21 22 22
12 12 12 13 13 14 14 15 15 16 16 16 17 17 17 18 18 18 18 19 20 22 22 22 22 22 22 22 21 21 21 21 21 20 20 20 20 21 21 21 21 22 22 22
13 13 14 14 14 14 15 16 16 17 17 17 18 18 18 18 18 18 19 20 21 22 22 22 22 22 22 21 21 21 21 21 21 21 21 21 21 21 21 21 22 22 22 22
14 14 14 14 15 15 15 16 17 17 17 18 18 18 18 18 19 19 20 21 21 21 21 22 22 22 22 22 21 21 21 21 21 21 21 21 22 22 22 22 22 22 22 22
14 14 14 15 15 15 15 16 16 17 17 17 18 18 19 19 19 20 21 21 21 22 22 22 22 22 22 22 22 22 22 22 22 22 22 22 22 21 21 21 21 21 21 21
14 14 14 15 15 15 15 16 16 16 16 17 17 18 19 19 20 20 21 21 21 22 22 22 22 22 22 22 22 22 22 22 21 21 21 21 21 21 20 20 20 20 20 20
14 14 15 15 15 16 16 16 16 16 16 17 17 18 19 19 20 20 20 21 21 21 22 22 22 22 22 21 21 21 21 21 21 21 20 20 20 20 19 19 19 19 20 19